Santander Airport, Spain

3:56 PM CEST on July 23, 2016 (GMT +0200)
Santander Airport

Weather History for LEXJ - November, 2012

Change the Weather History Date:

Wednesday, November 14, 2012

  Actual Average Record
Temperature  
Mean Temperature 55 °F -  
Max Temperature 69 °F 55 °F 69 °F (2012)
Min Temperature 41 °F 45 °F 41 °F (2012)
Degree Days  
Heating Degree Days 10    
Growing Degree Days 5 (Base 50)    
Moisture  
Dew Point 49 °F    
Average Humidity 80    
Maximum Humidity 100    
Minimum Humidity 52    
Precipitation  
Precipitation 0.00 in - - ()
Sea Level Pressure  
Sea Level Pressure 30.04 in    
Wind  
Wind Speed 2 mph ()    
Max Wind Speed 10 mph    
Max Gust Speed -    
Visibility 4.6 miles    
Events      
Averages and records for this station are not official NWS values.
T = Trace of Precipitation, MM = Missing Value Source: Averaged Metar Reports

Daily Weather History Graph

Daily Weather History Graph

Search for Another Location

Airport or City:

Trip Planner

Search our weather history database for the weather conditions in past years. The results will help you decide how hot, cold, wet, or windy it might be!

Date:

Astronomy

Nov. 14, 2012 Rise Set
Actual Time 8:07 AM CET 5:51 PM CET
Civil Twilight 7:37 AM CET 6:22 PM CET
Nautical Twilight 7:02 AM CET 6:56 PM CET
Astronomical Twilight 6:28 AM CET 7:30 PM CET
Moon 8:41 AM CET (11/14) 6:24 PM CET (11/14)
Length of Visible Light 10h 44m
Length of Day
9h 43m
New Moon, 0% of the Moon is Illuminated
Nov 14
New Moon
Nov 20
First Quarter
Nov 28
Full
Dec 6
Last Quarter
Dec 13
New

Hourly Weather History & Observations

Time (CET) Temp. Dew Point Humidity Pressure Visibility Wind Dir Wind Speed Gust Speed Precip Events Conditions
5:30 AM 42.8 °F 39.2 °F 87% 30.04 in - Variable 2.3 mph - N/A   Clear
6:00 AM 42.8 °F 39.2 °F 87% 30.04 in - Calm Calm - N/A   Clear
6:30 AM 42.8 °F 41.0 °F 93% 30.04 in - Calm Calm - N/A   Clear
7:00 AM 41.0 °F 39.2 °F 93% 30.04 in - Calm Calm - N/A   Clear
7:30 AM 42.8 °F 41.0 °F 93% 30.04 in - Calm Calm - N/A   Clear
8:00 AM 48.2 °F 44.6 °F 87% 30.04 in - South 6.9 mph - N/A   Clear
8:30 AM 44.6 °F 42.8 °F 93% 30.04 in - Variable 1.2 mph - N/A   Clear
9:00 AM 50.0 °F 46.4 °F 87% 30.04 in - Variable 2.3 mph - N/A   Clear
9:30 AM 57.2 °F 48.2 °F 72% 30.06 in - South 5.8 mph - N/A   Clear
10:00 AM 64.4 °F 48.2 °F 56% 30.06 in - South 4.6 mph - N/A   Clear
10:30 AM 64.4 °F 50.0 °F 59% 30.06 in - WSW 1.2 mph - N/A   Clear
11:00 AM 66.2 °F 50.0 °F 56% 30.06 in - ESE 5.8 mph - N/A   Clear
11:30 AM 68.0 °F 50.0 °F 52% 30.06 in - Variable 3.5 mph - N/A   Clear
12:00 PM 68.0 °F 50.0 °F 52% 30.04 in - South 10.4 mph - N/A   Clear
12:30 PM 69.8 °F 51.8 °F 53% 30.04 in - South 10.4 mph - N/A   Clear
1:00 PM 64.4 °F 53.6 °F 68% 30.04 in - ENE 4.6 mph - N/A   Clear
1:30 PM 64.4 °F 53.6 °F 68% 30.04 in - NE 3.5 mph - N/A   Clear
2:00 PM 64.4 °F 53.6 °F 68% 30.04 in - Variable 2.3 mph - N/A   Clear
2:30 PM 64.4 °F 53.6 °F 68% 30.01 in - NW 3.5 mph - N/A   Clear
3:00 PM 64.4 °F 53.6 °F 68% 30.01 in - Variable 2.3 mph - N/A   Clear
3:30 PM 62.6 °F 53.6 °F 72% 30.01 in - NNW 4.6 mph - N/A   Clear
4:00 PM 60.8 °F 53.6 °F 77% 30.04 in - NNW 4.6 mph - N/A   Clear
4:30 PM 60.8 °F 51.8 °F 72% 30.04 in - Variable 2.3 mph - N/A   Clear
5:00 PM 59.0 °F 51.8 °F 77% 30.04 in - Variable 2.3 mph - N/A   Clear
5:30 PM 59.0 °F 51.8 °F 77% 30.04 in - Variable 1.2 mph - N/A   Clear
6:00 PM 55.4 °F 51.8 °F 88% 30.04 in - West 3.5 mph - N/A   Clear
6:30 PM 53.6 °F 51.8 °F 94% 30.04 in - Calm Calm - N/A   Clear
7:00 PM 53.6 °F 51.8 °F 94% 30.04 in - Calm Calm - N/A   Clear
7:30 PM 51.8 °F 50.0 °F 94% 30.04 in - Calm Calm - N/A   Clear
8:00 PM 51.8 °F 50.0 °F 94% 30.04 in - Calm Calm - N/A   Clear
8:30 PM 51.8 °F 50.0 °F 94% 30.04 in - Calm Calm - N/A   Clear
9:00 PM 51.8 °F 50.0 °F 94% 30.04 in - South 2.3 mph - N/A   Clear
9:30 PM 51.8 °F 50.0 °F 94% 30.04 in 5.6 mi Calm Calm - N/A   Unknown
10:00 PM 50.0 °F 50.0 °F 100% 30.04 in 4.3 mi Variable 1.2 mph - N/A   Unknown
10:30 PM 50.0 °F 50.0 °F 100% 30.04 in 4.3 mi Calm Calm - N/A   Unknown
11:00 PM 48.2 °F 46.4 °F 93% 30.04 in 4.3 mi Calm Calm - N/A   Unknown